Location: Aalen
(48.8330°N, 10.1000°E)
Time: 02:43:17
(UTC+01:00)

Envisat - Pass Details

Date: 06 December 2022
Orbit: 763 x 765 km, 98.2° (Epoch: 28 January)

Event Time Altitude Azimuth Distance (km) Brightness Sun altitude
Rises 05:06:34 0° 11° (N) 3,246 6.3 -27.1°
Reaches altitude 10° 05:08:55 10° 7° (N) 2,315 5.5 -26.7°
Enters shadow 05:10:58 24° 0° (N) 1,545 4.5 -26.4°
